When you browse on this site, cookies collect data to enhance your experience and personalize the content and advertising you see.
Visit our Privacy Policy to learn more. By continuing to use the site, you agree to this use of cookies and data.
  • In France
  • List of Countries
  • For 7 days
  • Water Temperature
  • Satellite Maps
  • Weather Map
  • Weather Widgets
  • user-avatar
    Login

    Hourly Weather Shusha

    Today, 18 December, Tuesday

    Time Temperature Precipitation Wind Pressure Humidity
    00:00 +1°C° 0.2 mm 1 mps 660 mmHg 90%
    01:00 +1°C° 0.2 mm 1 mps 660 mmHg 90%
    02:00 +1°C° 0.2 mm 1 mps 660 mmHg 90%
    03:00 +1°C° 0 mm 1 mps 661 mmHg 90%
    04:00 +1°C° 0.3 mm 1 mps 661 mmHg 90%
    05:00 +1°C° 0.3 mm 1 mps 660 mmHg 90%
    06:00 +1°C° 0.3 mm 1 mps 660 mmHg 90%
    07:00 +2°C° 0.3 mm 1 mps 661 mmHg 89%
    08:00 +2°C° 0.3 mm 1 mps 661 mmHg 87%
    09:00 +2°C° 0 mm 1 mps 661 mmHg 85%
    10:00 +3°C° 0.1 mm 1 mps 661 mmHg 84%
    11:00 +3°C° 0.1 mm 1 mps 661 mmHg 82%
    12:00 +3°C° 0.1 mm 2 mps 661 mmHg 80%
    13:00 +3°C° 0 mm 2 mps 661 mmHg 81%
    14:00 +3°C° 0 mm 2 mps 661 mmHg 82%
    15:00 +3°C° 0 mm 2 mps 661 mmHg 84%
    16:00 +2°C° 0 mm 2 mps 661 mmHg 87%
    17:00 +2°C° 0 mm 2 mps 661 mmHg 89%
    18:00 +2°C° 0 mm 1 mps 662 mmHg 92%
    19:00 +2°C° 0.1 mm 1 mps 662 mmHg 92%
    20:00 +2°C° 0.1 mm 1 mps 662 mmHg 91%
    21:00 +2°C° 0.1 mm 1 mps 662 mmHg 91%
    22:00 +2°C° 0 mm 1 mps 663 mmHg 91%
    23:00 +1°C° 0 mm 1 mps 663 mmHg 90%

    Tomorrow, 19 December, Wednesday

    Time Temperature Precipitation Wind Pressure Humidity
    00:00 +1°C° 0 mm 1 mps 663 mmHg 90%
    01:00 +1°C° 0 mm 1 mps 663 mmHg 90%
    02:00 +1°C° 0 mm 1 mps 663 mmHg 89%
    03:00 +1°C° 0 mm 1 mps 663 mmHg 89%
    04:00 +1°C° 0 mm 1 mps 663 mmHg 89%
    05:00 +1°C° 0 mm 1 mps 663 mmHg 89%
    06:00 +1°C° 0 mm 1 mps 663 mmHg 88%
    07:00 +1°C° 0 mm 1 mps 664 mmHg 86%
    08:00 +2°C° 0 mm 1 mps 664 mmHg 83%
    09:00 +3°C° 0 mm 1 mps 664 mmHg 80%
    10:00 +3°C° 0 mm 1 mps 664 mmHg 78%
    11:00 +3°C° 0 mm 2 mps 664 mmHg 76%
    12:00 +4°C° 0 mm 2 mps 664 mmHg 74%
    13:00 +4°C° 0 mm 2 mps 664 mmHg 75%
    14:00 +3°C° 0 mm 2 mps 663 mmHg 76%
    15:00 +3°C° 0 mm 2 mps 663 mmHg 77%
    16:00 +3°C° 0 mm 2 mps 663 mmHg 80%
    17:00 +3°C° 0 mm 1 mps 663 mmHg 84%
    18:00 +2°C° 0 mm 1 mps 663 mmHg 87%
    19:00 +2°C° 0 mm 1 mps 663 mmHg 87%
    20:00 +2°C° 0 mm 1 mps 663 mmHg 87%
    21:00 +2°C° 0 mm 1 mps 663 mmHg 87%
    22:00 +2°C° 0 mm 1 mps 663 mmHg 87%
    23:00 +1°C° 0 mm 1 mps 663 mmHg 87%

    Day after tomorrow, 20 December, Thursday

    Time Temperature Precipitation Wind Pressure Humidity
    00:00 +1°C° 0 mm 1 mps 662 mmHg 88%
    01:00 +1°C° 0 mm 1 mps 662 mmHg 88%
    02:00 +1°C° 0 mm 1 mps 662 mmHg 88%
    03:00 +1°C° 0 mm 1 mps 662 mmHg 88%
    04:00 +1°C° 0 mm 1 mps 662 mmHg 87%
    05:00 +1°C° 0 mm 1 mps 662 mmHg 87%
    06:00 +1°C° 0 mm 1 mps 662 mmHg 87%
    07:00 +2°C° 0 mm 1 mps 662 mmHg 85%
    08:00 +2°C° 0 mm 1 mps 662 mmHg 82%
    09:00 +3°C° 0 mm 1 mps 662 mmHg 79%
    10:00 +3°C° 0 mm 1 mps 662 mmHg 77%
    11:00 +4°C° 0 mm 1 mps 661 mmHg 75%
    12:00 +4°C° 0 mm 2 mps 661 mmHg 73%
    13:00 +4°C° 0 mm 2 mps 661 mmHg 74%
    14:00 +4°C° 0 mm 2 mps 660 mmHg 75%
    15:00 +3°C° 0 mm 2 mps 660 mmHg 77%
    16:00 +4°C° 0 mm 1 mps 660 mmHg 80%
    17:00 +3°C° 0 mm 1 mps 660 mmHg 84%
    18:00 +2°C° 0 mm 1 mps 660 mmHg 88%
    19:00 +2°C° 0.1 mm 1 mps 660 mmHg 87%
    20:00 +1°C° 0.1 mm 0 mps 660 mmHg 87%
    21:00 +1°C° 0.1 mm 0 mps 660 mmHg 87%
    22:00 +1°C° 0.1 mm 0 mps 660 mmHg 87%
    23:00 +1°C° 0.1 mm 0 mps 661 mmHg 86%

    21 December, Friday

    Time Temperature Precipitation Wind Pressure Humidity
    00:00 +2°C° 0.1 mm 1 mps 661 mmHg 86%
    01:00 +1°C° 0.1 mm 0 mps 661 mmHg 85%
    02:00 +1°C° 0.1 mm 0 mps 661 mmHg 85%
    03:00 +1°C° 0.1 mm 0 mps 661 mmHg 84%
    04:00 +1°C° 0.1 mm 0 mps 661 mmHg 84%
    05:00 +1°C° 0.1 mm 0 mps 661 mmHg 83%
    06:00 +1°C° 0.1 mm 0 mps 661 mmHg 83%
    07:00 +1°C° 0.2 mm 0 mps 662 mmHg 80%
    08:00 +2°C° 0.2 mm 0 mps 662 mmHg 78%
    09:00 +2°C° 0.2 mm 0 mps 663 mmHg 75%
    10:00 +4°C° 0.1 mm 1 mps 663 mmHg 72%
    11:00 +5°C° 0.1 mm 1 mps 663 mmHg 69%
    12:00 +5°C° 0.1 mm 1 mps 663 mmHg 66%
    13:00 +5°C° 0.1 mm 1 mps 663 mmHg 66%
    14:00 +5°C° 0.1 mm 1 mps 662 mmHg 67%
    15:00 +5°C° 0.1 mm 1 mps 662 mmHg 68%
    16:00 +4°C° 0.1 mm 1 mps 662 mmHg 73%
    17:00 +3°C° 0.1 mm 1 mps 662 mmHg 78%
    18:00 +2°C° 0.1 mm 1 mps 662 mmHg 83%
    19:00 +2°C° 0.1 mm 1 mps 662 mmHg 83%
    20:00 +2°C° 0.1 mm 1 mps 662 mmHg 84%
    21:00 +2°C° 0.1 mm 1 mps 663 mmHg 85%
    22:00 0°C° 0 mm 0 mps 662 mmHg 85%
    23:00 0°C° 0 mm 0 mps 662 mmHg 86%

    22 December, Saturday

    Time Temperature Precipitation Wind Pressure Humidity
    00:00 0°C° 0 mm 0 mps 662 mmHg 86%
    01:00 0°C° 0 mm 0 mps 662 mmHg 85%
    02:00 -1°C° 0 mm 0 mps 662 mmHg 85%
    03:00 -1°C° 0 mm 0 mps 661 mmHg 84%
    04:00 -1°C° 0 mm 0 mps 661 mmHg 83%
    05:00 0°C° 0 mm 1 mps 661 mmHg 82%
    06:00 0°C° 0 mm 1 mps 661 mmHg 81%
    07:00 +1°C° 0 mm 1 mps 661 mmHg 77%
    08:00 0°C° 0 mm 0 mps 661 mmHg 73%
    09:00 +1°C° 0 mm 0 mps 662 mmHg 69%
    10:00 +3°C° 0 mm 1 mps 661 mmHg 67%
    11:00 +4°C° 0 mm 1 mps 661 mmHg 65%
    12:00 +4°C° 0 mm 2 mps 661 mmHg 63%
    13:00 +4°C° 0 mm 2 mps 661 mmHg 64%
    14:00 +4°C° 0 mm 2 mps 660 mmHg 66%
    15:00 +4°C° 0 mm 2 mps 660 mmHg 68%
    16:00 +4°C° 0 mm 1 mps 660 mmHg 73%
    17:00 +3°C° 0 mm 1 mps 660 mmHg 78%
    18:00 +1°C° 0 mm 0 mps 660 mmHg 83%
    19:00 +1°C° 0 mm 0 mps 660 mmHg 82%
    20:00 +1°C° 0 mm 0 mps 660 mmHg 81%
    21:00 +1°C° 0 mm 0 mps 660 mmHg 80%
    22:00 +2°C° 0 mm 1 mps 660 mmHg 79%
    23:00 +1°C° 0 mm 1 mps 660 mmHg 78%

    23 December, Sunday

    Time Temperature Precipitation Wind Pressure Humidity
    00:00 +1°C° 0 mm 1 mps 660 mmHg 78%
    01:00 +1°C° 0 mm 1 mps 660 mmHg 77%
    02:00 +1°C° 0 mm 1 mps 660 mmHg 76%
    03:00 +1°C° 0 mm 1 mps 660 mmHg 74%
    04:00 0°C° 0 mm 1 mps 660 mmHg 73%
    05:00 0°C° 0 mm 1 mps 660 mmHg 72%
    06:00 0°C° 0 mm 1 mps 660 mmHg 71%
    07:00 +1°C° 0 mm 1 mps 661 mmHg 67%
    08:00 +2°C° 0 mm 1 mps 661 mmHg 62%
    09:00 +3°C° 0 mm 1 mps 662 mmHg 58%
    10:00 +4°C° 0 mm 1 mps 662 mmHg 56%
    11:00 +4°C° 0 mm 1 mps 662 mmHg 54%
    12:00 +5°C° 0 mm 1 mps 661 mmHg 52%
    13:00 +4°C° 0 mm 2 mps 661 mmHg 53%
    14:00 +4°C° 0 mm 2 mps 661 mmHg 54%
    15:00 +4°C° 0 mm 2 mps 661 mmHg 54%
    16:00 +4°C° 0 mm 1 mps 661 mmHg 60%
    17:00 +3°C° 0 mm 1 mps 660 mmHg 65%
    18:00 +2°C° 0 mm 1 mps 660 mmHg 71%
    19:00 +1°C° 0 mm 1 mps 660 mmHg 68%
    20:00 +1°C° 0 mm 1 mps 660 mmHg 66%
    21:00 +1°C° 0 mm 1 mps 660 mmHg 64%
    22:00 -1°C° 0 mm 2 mps 660 mmHg 61%
    23:00 -1°C° 0 mm 2 mps 659 mmHg 59%
    Show more